This is the latest recevied weather packets stored in our database for station/object KD8JAM. If no packets are shown the sender has not sent any weather packets the latest 10 day(s).
| Time | Temp. | Humidity | Pressure | Rain* | Wind** | Luminosity | Snow |
|---|---|---|---|---|---|---|---|
| 1778108605 | 3.33° C | 74% | 1013.3 hPa | 0 mm | - | 118 W/m² | - |
| 1778108301 | 2.78° C | 75% | 1013.5 hPa | 0 mm | - | 126 W/m² | - |
| 1778107998 | 3.33° C | 74% | 1013.3 hPa | 0 mm | - | 137 W/m² | - |
| 1778107695 | 3.33° C | 73% | 1013.5 hPa | 0 mm | - | 146 W/m² | - |
| 1778107392 | 3.33° C | 73% | 1013.3 hPa | 0 mm | - | 156 W/m² | - |
| 1778107089 | 3.33° C | 74% | 1013.3 hPa | 0 mm | - | 161 W/m² | - |
| 1778106784 | 2.78° C | 75% | 1013.8 hPa | 0 mm | - | 172 W/m² | - |
| 1778106481 | 2.78° C | 75% | 1013.6 hPa | 0 mm | - | 181 W/m² | - |
| 1778106176 | 2.78° C | 75% | 1013.5 hPa | 0 mm | - | 185 W/m² | - |
| 1778105875 | 3.33° C | 77% | 1013.6 hPa | 0 mm | - | 193 W/m² | - |
| 1778105572 | 3.33° C | 76% | 1013.4 hPa | 0 mm | - | 196 W/m² | - |
| 1778105270 | 2.78° C | 76% | 1013.3 hPa | 0 mm | - | 190 W/m² | - |
| 1778104965 | 3.33° C | 76% | 1013.2 hPa | 0 mm | - | 203 W/m² | - |
| 1778104661 | 3.33° C | 76% | 1013.3 hPa | 0 mm | - | 211 W/m² | - |
| 1778104357 | 3.33° C | 75% | 1013.3 hPa | 0 mm | - | 223 W/m² | - |
| 1778104054 | 2.78° C | 76% | 1013.4 hPa | 0 mm | - | 218 W/m² | - |
| 1778103751 | 3.33° C | 75% | 1013.2 hPa | 0 mm | - | 218 W/m² | - |
| 1778103449 | 2.78° C | 77% | 1013.2 hPa | 0 mm | - | 223 W/m² | - |
| 1778103146 | 2.78° C | 76% | 1013.3 hPa | 0 mm | - | 227 W/m² | - |
| 1778102843 | 3.33° C | 75% | 1013.3 hPa | 0 mm | - | 234 W/m² | - |
| 1778102539 | 3.33° C | 75% | 1013.3 hPa | 0 mm | - | 258 W/m² | - |
| 1778102234 | 3.33° C | 76% | 1013.3 hPa | 0 mm | - | 269 W/m² | - |
| 1778101930 | 3.33° C | 75% | 1013.3 hPa | 0 mm | - | 270 W/m² | - |
| 1778101628 | 3.33° C | 76% | 1013.3 hPa | 0 mm | - | 278 W/m² | - |
| 1778101324 | 3.33° C | 75% | 1013 hPa | 0 mm | - | 285 W/m² | - |
* Rain latest hour (hover to see other rain measurements)
** Current wind speed in m/s (hover to see current wind gust speed)